Regional Weather Roundup
Issued by NWS

Home | Current Version | Previous Version | Graphics & Text | Print | Product List | Glossary On
Versions: 1 2 3 4 5 6 7 8 9 10 11 12 13 14 15 16 17 18 19 20 21 22 23 24 25 26 27 28 29 30 31 32 33 34 35 36 37 38 39 40 41 42 43 44 45 46 47 48 49
000
ASUS45 KTFX 302310
RWRMT
MONTANA REGIONAL WEATHER ROUNDUP
NATIONAL WEATHER SERVICE GREAT FALLS MT
500 PM MDT THU JUL 30 2015

NOTE: "FAIR" INDICATES FEW OR NO CLOUDS BELOW 12000 FEET WITH NO
SIGNIFICANT WEATHER AND/OR OBSTRUCTIONS TO VISIBILITY.

MTZ001>007-043-310000-
WEST OF THE DIVIDE

CITY           SKY/WX    TMP DP  RH WIND       PRES   REMARKS
KALISPELL      CLEAR     89  37  16 SE13      30.14F
MISSOULA       SUNNY     88  37  16 CALM      30.17F
BUTTE          SUNNY     83  31  15 S5        30.32F
MULLAN PASS    SUNNY     79  29  16 CALM      30.38F
DEER LODGE       N/A     82  37  20 N7        30.30F
EUREKA           N/A     91  34  13 SW9       30.13F
HAMILTON         N/A     88  32  13 NE7       30.19F
LIBBY            N/A     91  32  12 W5        30.12F
RONAN            N/A     88  38  17 NE3       30.21F
$$

MTZ008-052>055-310000-
SOUTHWEST MONTANA

CITY           SKY/WX    TMP DP  RH WIND       PRES   REMARKS
BOZEMAN        SUNNY     86  43  22 NE8       30.26F
DILLON         SUNNY     83  40  21 S9        30.28F
W YELLOWSTONE  SUNNY     77  32  19 SE6       30.42F
THREE FORKS      N/A     87  42  20 SE6       30.21F
TWIN BRIDGES     N/A     85  37  18 SW1       30.24F
$$

MTZ009-010-012-014-046-048-049-054-310000-
EAST SLOPES AND CENTRAL MONTANA

CITY           SKY/WX    TMP DP  RH WIND       PRES   REMARKS
CUT BANK       SUNNY     87  30  13 W12G17    30.18F
GREAT FALLS    SUNNY     87  36  16 SW6       30.20F
HELENA         SUNNY     91  31  11 W10G22    30.20F
$$

MTZ011-013-016-021-045-047-050-051-310000-
NORTH CENTRAL MONTANA

CITY           SKY/WX    TMP DP  RH WIND       PRES   REMARKS
HAVRE          MOSUNNY   88  40  18 NW9       30.14F
LEWISTOWN      SUNNY     84  40  21 N6        30.26F
CHINOOK          N/A     88  41  19 CALM      30.15F
$$

MTZ017>020-022>027-061-062-310000-
NORTHEAST MONTANA

CITY           SKY/WX    TMP DP  RH WIND       PRES   REMARKS
GLASGOW        SUNNY     86  42  21 W10G17    30.15F
JORDAN           N/A     88  38  17 NW16      30.17F
SIDNEY         SUNNY    N/A N/A N/A W7G16     30.13F
WOLF POINT     MOSUNNY   88  40  18 W15G25    30.14F
MALTA            N/A     87  42  20 W10       30.12S
PLENTYWOOD       N/A     79  43  27 W9G20     30.15F
POPLAR           N/A     84  43  23 N5        30.15S
$$

MTZ028>42-056>058-310000-
SOUTHCENTRAL AND SOUTHEAST MONTANA

CITY           SKY/WX    TMP DP  RH WIND       PRES   REMARKS
BAKER          MOSUNNY   87  42  20 NW18      30.20S
BILLINGS       MOSUNNY   88  35  15 E7        30.21F
LIVINGSTON     SUNNY     88  33  14 W8G20     30.25F
MILES CITY     PTSUNNY   91  43  18 N9        30.15F
FORSYTH          N/A     90  37  15 W9G17     30.17S
LAUREL           N/A     88  41  19 NE6       30.17F
ROUNDUP          N/A     87  38  17 NE5       30.11F
$$

REGIONAL REPORTS...DAKOTAS

CITY           SKY/WX    TMP DP  RH WIND       PRES   REMARKS
WILLISTON      MOSUNNY   85  43  22 N12       30.15S
MINOT          SUNNY     80  45  28 NW21G28   30.11S
DICKINSON      MOSUNNY   80  42  25 NW9       30.16S
BEACH          MOCLDY    82  39  21 NW10      30.19F
CROSBY         FAIR      77  46  33 NW13      30.15F
BISMARCK       SUNNY     84  45  25 NW16G22   30.13S
GRAND FORKS    MOSUNNY   82  52  35 NW14      29.97S
FARGO          SUNNY     83  53  35 NW16      30.01F
BUFFALO SD       N/A     89  39  17 NW20G25   30.13S
RAPID CITY     SUNNY     87  45  23 W5        30.22S
$$

REGIONAL REPORTS...WYOMING/IDAHO/WASHINGTON

CITY           SKY/WX    TMP DP  RH WIND       PRES   REMARKS
GILLETTE       MOSUNNY   87  34  15 CALM      30.26F
SHERIDAN       SUNNY     89  37  16 E7        30.24S
BUFFALO WY     SUNNY     85  35  16 CALM      30.31S
CODY           SUNNY     84  34  16 E10G17    30.29S
YELLOWSTONE LA   N/A     70  37  29 VRB5      30.52F
IDAHO FALLS    SUNNY     87  31  13 S8        30.29F
SALMON         SUNNY     86  43  22 N8        30.18F
BOISE          SUNNY     92  31  11 W7        30.15F
SPOKANE        SUNNY     95  30  10 W14       30.12F
$$

REGIONAL REPORTS...ALBERTA

CITY           SKY/WX    TMP DP  RH WIND       PRES   REMARKS
CALGARY        CLOUDY    79  45  29 SE14      30.17F
LETHBRIDGE     MOSUNNY   88  37  16 VRB7      30.12F
MEDICINE HAT   MOSUNNY   86  39  19 SW7       30.13F
WATERTON GATE    N/A     84  39  20 SW10        N/A
CARDSTON         N/A     88  36  15 SW7         N/A
MILK RIVER       N/A     88  34  14 W10         N/A
ONEFOUR          N/A     84  41  21 NW3         N/A
$$

REGIONAL REPORTS...SASKATCHEWAN

CITY           SKY/WX    TMP DP  RH WIND       PRES   REMARKS
SWIFT CURRENT  SUNNY     75  43  31 W9        30.16F
REGINA         MOSUNNY   77  52  41 NW17G23   30.13S
SASKATOON      MOSUNNY   75  46  35 NW16      30.09F
CYPRESS HILLS    N/A     75  41  29 NW5         N/A
VAL MARIE        N/A     81  45  28 NW13G20     N/A
ROCKGLEN         N/A     77  48  36 W10G18      N/A
ASSINIBOIA       N/A     75  43  31 W14         N/A
$$


USA.gov is the U.S. government's official web portal to all federal, state and local government web resources and services.